EW2270 Weather Reports


time (UTC)temp
F
wind
direction
speed
knots
gust
knots
rain 1hr
in
rain 24hr
in
rain mn
in
humidity
%
barometer
mb
20260507093027 54 37 0.9 5.2 0.00 0.00 0.00 59 1014.5
20260507091526 54 147 2.6 6.1 0.00 0.00 0.00 59 1014.5
20260507090024 53 198 3.5 6.1 0.00 0.00 0.00 61 1014.4
20260507084520 53 173 1.7 3.5 0.00 0.00 0.00 61 1014.3
20260507083019 54 110 0.9 3.5 0.00 0.00 0.00 57 1014.3
20260507081518 54 143 0.0 2.6 0.00 0.00 0.00 58 1014.4
20260507080016 56 131 3.5 7.0 0.00 0.00 0.00 55 1014.1
20260507074525 54 137 1.7 4.3 0.00 0.00 0.00 60 1014.0
20260507073011 55 142 0.9 3.5 0.00 0.00 0.00 59 1014.1
20260507071507 57 124 3.5 5.2 0.00 0.00 0.00 56 1013.9
20260507070003 59 146 2.6 7.0 0.00 0.00 0.00 53 1014.0
20260507064502 57 141 4.3 6.1 0.00 0.00 0.00 55 1014.0
20260507063002 57 105 2.6 4.3 0.00 0.00 0.00 57 1013.9
20260507061502 60 132 4.3 6.1 0.00 0.00 0.00 50 1013.8
20260507060002 61 200 3.5 6.1 0.00 0.00 0.00 47 1013.7
20260507054601 62 175 2.6 4.3 0.00 0.00 0.00 46 1013.7
20260507053100 63 137 2.6 3.5 0.00 0.00 0.00 45 1013.7
20260507051559 64 211 4.3 10.4 0.00 0.00 0.00 42 1013.7
20260507050100 65 209 7.0 12.2 0.00 0.00 0.00 41 1013.6
20260507044601 66 195 7.8 16.5 0.00 0.00 0.00 40 1013.7
20260507043058 65 160 3.5 6.1 0.00 0.00 0.00 42 1013.7
20260507041601 66 129 1.7 6.1 0.00 0.00 0.00 42 1013.6
20260507040106 68 230 7.8 11.3 0.00 0.00 0.00 37 1013.3
20260507034618 69 161 5.2 11.3 0.00 0.00 0.00 37 1013.1
20260507033105 70 221 7.0 12.2 0.00 0.00 0.00 36 1013.1
20260507031554 70 242 5.2 9.6 0.00 0.00 0.00 37 1012.8
20260507030053 70 245 6.1 16.5 0.00 0.00 0.00 36 1012.6
20260507024558 71 217 5.2 8.7 0.00 0.00 0.00 36 1012.5
20260507023051 71 241 5.2 9.6 0.00 0.00 0.00 36 1012.4
20260507021558 71 193 3.5 7.8 0.00 0.00 0.00 36 1012.4
20260507020050 72 243 3.5 10.4 0.00 0.00 0.00 36 1012.1
20260507014552 73 226 5.2 12.2 0.00 0.00 0.00 36 1011.9
20260507013027 74 225 7.0 15.6 0.00 0.00 0.00 35 1011.9
20260507011527 74 253 8.7 13.9 0.00 0.00 0.00 36 1011.8
20260507010033 75 233 10.4 14.8 0.00 0.00 0.00 35 1011.7
20260507004526 76 243 11.3 17.4 0.00 0.00 0.00 34 1011.5
20260507003024 77 235 12.2 19.1 0.00 0.00 0.00 33 1011.4
20260507001529 78 252 14.8 20.0 0.00 0.00 0.00 29 1011.3
20260507000028 77 244 13.0 20.9 0.00 0.00 0.00 31 1011.3
20260506234542 78 250 9.6 19.1 0.00 0.00 0.00 34 1011.2
20260506233022 78 249 10.4 18.2 0.00 0.00 0.00 32 1011.2
20260506231521 78 241 12.2 17.4 0.00 0.00 0.00 32 1011.1
20260506230020 79 271 12.2 21.7 0.00 0.00 0.00 31 1011.2
20260506224526 80 272 13.0 18.2 0.00 0.00 0.00 30 1011.3
20260506223018 79 261 12.2 17.4 0.00 0.00 0.00 30 1011.3
20260506221515 79 279 12.2 18.2 0.00 0.00 0.00 33 1011.4
20260506220029 79 276 13.0 18.2 0.00 0.00 0.00 36 1011.8
20260506214513 79 281 12.2 20.0 0.00 0.00 0.00 39 1011.8
20260506213012 78 276 13.0 19.1 0.00 0.00 0.00 40 1011.9
20260506211518 80 271 13.9 21.7 0.00 0.00 0.00 34 1011.6
20260506210011 81 266 12.2 22.6 0.00 0.00 0.00 31 1011.8
20260506204509 80 245 12.2 17.4 0.00 0.00 0.00 30 1011.5
20260506203006 79 202 10.4 18.2 0.00 0.00 0.00 34 1011.7
20260506201505 79 213 10.4 17.4 0.00 0.00 0.00 35 1011.7
20260506200004 79 244 10.4 17.4 0.00 0.00 0.00 40 1011.9
20260506194604 78 224 7.8 13.0 0.00 0.00 0.00 37 1012.1
20260506193110 77 166 7.0 13.9 0.00 0.00 0.00 40 1012.4
20260506191556 76 176 3.5 10.4 0.00 0.00 0.00 44 1012.7
20260506190055 75 155 6.1 9.6 0.00 0.00 0.00 42 1012.9
20260506184552 75 205 2.6 5.2 0.00 0.00 0.00 44 1013.0
20260506183058 74 230 5.2 8.7 0.00 0.00 0.00 42 1013.4
20260506181600 73 303 2.6 6.1 0.00 0.00 0.00 46 1013.6
20260506180045 72 243 0.0 3.5 0.00 0.00 0.00 47 1013.9
20260506174543 71 253 2.6 6.1 0.00 0.00 0.00 48 1013.9
20260506173052 69 238 0.0 4.3 0.00 0.00 0.00 52 1014.0
20260506171536 68 27 2.6 5.2 0.00 0.00 0.00 54 1014.0
20260506170035 67 278 1.7 7.8 0.00 0.00 0.00 56 1014.0
20260506164533 67 338 0.9 3.5 0.00 0.00 0.00 57 1013.9
20260506163029 65 292 0.9 5.2 0.00 0.00 0.00 59 1014.0
20260506161526 65 14 2.6 5.2 0.00 0.00 0.00 58 1014.1
20260506160035 64 304 1.7 3.5 0.00 0.00 0.00 59 1014.1
20260506154524 63 317 2.6 4.3 0.00 0.00 0.00 60 1014.3
20260506153020 63 2 1.7 4.3 0.00 0.00 0.00 62 1014.2
20260506151519 63 342 1.7 2.6 0.00 0.00 0.00 59 1014.3
20260506150015 61 8 1.7 2.6 0.00 0.00 0.00 67 1014.2
20260506144510 59 4 0.0 2.6 0.00 0.00 0.00 72 1014.1
20260506143008 58 103 0.9 1.7 0.00 0.00 0.00 72 1014.0
20260506141503 57 103 0.9 1.7 0.00 0.00 0.00 73 1013.8
20260506140100 56 103 0.0 0.0 0.00 0.00 0.00 78 1013.7
20260506134559 53 103 0.0 0.0 0.00 0.00 0.00 82 1013.6
20260506133106 52 103 0.0 3.5 0.00 0.00 0.00 81 1013.4
20260506131602 50 103 1.7 3.5 0.00 0.00 0.00 84 1013.4
20260506130056 49 142 0.0 0.0 0.00 0.00 0.00 86 1013.3
20260506124557 47 142 0.0 0.0 0.00 0.00 0.00 88 1013.1
20260506123049 48 142 0.0 0.0 0.00 0.00 0.00 85 1012.9
20260506121546 48 142 0.0 0.9 0.00 0.00 0.00 87 1012.7
20260506120043 49 142 0.0 1.7 0.00 0.00 0.00 82 1012.4
20260506114540 50 142 1.7 2.6 0.00 0.00 0.00 82 1012.2
20260506113039 51 166 0.9 1.7 0.00 0.00 0.00 83 1012.2
20260506111537 51 166 1.7 1.7 0.00 0.00 0.00 84 1012.0
20260506110036 50 166 0.0 0.9 0.00 0.00 0.00 85 1012.1
20260506104534 50 166 0.9 3.5 0.00 0.00 0.00 85 1011.9
20260506103038 50 186 2.6 3.5 0.00 0.00 0.00 85 1011.9
20260506101529 50 186 0.9 1.7 0.00 0.00 0.00 84 1011.7
20260506100034 52 269 0.0 1.7 0.00 0.00 0.00 82 1011.7
20260506094531 54 148 0.0 2.6 0.00 0.00 0.00 77 1011.5